"Pseudo-MPEC" for C2EPZV2

Created 2020 Mar 26 21:07:07 UT using Find_Orb

Click here for an explanation of pseudo-MPECs

 
 Astrometry: 
     C2EPZV2  C2020 03 25.26090 10 53 07.99 +12 27 12.3    ~3P9b       VNEOCPG96
     C2EPZV2  C2020 03 25.26616 10 53 08.26 +12 26 47.1    ~3P9b 21.9 GVNEOCPG96
     C2EPZV2  C2020 03 25.27143 10 53 08.58 +12 26 21.8    ~3P9b 21.2 GVNEOCPG96
     C2EPZV2  C2020 03 25.27668 10 53 08.93 +12 25 56.4    ~3P9b 21.0 GVNEOCPG96
     C2EPZV2  C2020 03 25.38270 10 53 15.46 +12 17 24.1    ~3P9q 21.0 GVNEOCPI52
     C2EPZV2  C2020 03 25.38563 10 53 15.58 +12 17 09.5    ~3P9q 21.5 GVNEOCPI52
     C2EPZV2  C2020 03 25.38855 10 53 15.80 +12 16 56.0    ~3P9q 21.3 GVNEOCPI52
     C2EPZV2 IC2020 03 25vv[tZcV[d2bR^4se.H]S8)9E^hur/di`:KZN4j/Sr+AstrometryL01
     C2EPZV2 bC2020 03 25;`XncGsl:P)m#lXl,rq@!`109g\x(v0.D6LFcr`[#COZjav3x=48L01
     C2EPZV2 bC2020 03 25(y+o5redacted;)R29:V)@VG9q\:1v^L5:T,NF4'Q]=4i)M*91JpL01
     C2EPZV2  C2020 03 25.92223 10 53 57.57 +11 34 51.0    ~3PNM 21.1 VVNEOCP033
     C2EPZV2  C2020 03 25.92552 10 53 57.78 +11 34 36.4    ~3PNM 21.2 VVNEOCP033
     C2EPZV2  C2020 03 25.92881 10 53 57.98 +11 34 20.8    ~3PNM 21.2 VVNEOCP033
     C2EPZV2  C2020 03 26.13889 10 54 15.37 +11 18 24.7    ~3Q3q 22.1 GVNEOCPI52
     C2EPZV2  C2020 03 26.14037 10 54 15.49 +11 18 18.4    ~3Q3q 20.7 GVNEOCPI52
     C2EPZV2  C2020 03 26.14183 10 54 15.56 +11 18 11.3    ~3Q3q       VNEOCPI52
     C2EPZV2 KC2020 03 262=gnY[Z/@`fUclickt;)AO0rf'here-004:$yt1\;oP:Ypy%!s@*H21
     C2EPZV2 KC2020 03 26nIngjvN`bnd28MHS-r*!QTP4W#.;r2/9V_gVF)JdE6#M9041n6IlH21
     C2EPZV2 KC2020 03 26l7IIydforA1s4g3!explanationwY_!C^8Fe+1%jX(6$?_Ms#I*PH21

Station data:
(033) Karl Schwarzschild Observatory, Tautenburg  (N50.980140 E11.711240)
   Germany. 1.3-m Schmidt.
(G96) Mt. Lemmon Survey  (N32.442754 W110.788720)  US/Arizona.  Observers T.
   A. Pruyne, B. M. Africano, E. J. Christensen, G. A. Farneth, D. C. Fuls,
   A. R. Gibbs, A. D. Grauer, H. Gröller, J. A. Johnson, R. A. Kowalski, S.
   M. Larson, G. J. Leonard, D. Rankin, R. L. Seaman, F. C. Shelly. 1.5-m
   reflector + 10K CCD.
(H21) Astronomical Research Observatory, Westfield  (N39.483057 W87.968270)
   US/Illinois. 0.76-m f/3.0 astrograph + CCD.
(I52) Steward Observatory, Mt. Lemmon Station  (N32.442547 W110.788920)
   US/Arizona.  Observers T. A. Pruyne, B. M. Africano, E. J. Christensen, G.
   A. Farneth, D. C. Fuls, A. R. Gibbs, A. D. Grauer, H. Gröller, J. A.
   Johnson, R. A. Kowalski, S. M. Larson, G. J. Leonard, D. Rankin, R. L.
   Seaman, F. C. Shelly. 1.0-m reflector + CCD.
(L01) Višnjan Observatory, Tičan  (N45.290900 E13.749300)  Croatia.
   Observers K. Korlević, E. Pettarin. Measurer E. Pettarin. 1.0-m f/2.9
   reflector + CCD.

Orbital elements:  C2EPZV2
   Perihelion 2020 Jan 28.945926 +/- 0.288 TT = 22:42:08 (JD 2458877.445926)
Epoch 2020 Mar 26.0 TT = JDT 2458934.5   Earth MOID: 0.1022   AutoNEOCP
M  20.72565946 +/- 0.46             (J2000 ecliptic)
n   0.36326344 +/- 0.00758          Peri.  113.00030 +/- 0.54
a   1.94530746 +/- 0.0271           Node     5.07044 +/- 0.043
e   0.5053973 +/- 0.00752           Incl.   10.85305 +/- 0.11
P   2.71/991.00d           H 23.7   G  0.15   U  9.5  
q 0.96215416 +/- 0.00388    Q 2.92846076 +/- 0.0541
From 19 observations 2020 Mar. 25-26 (22.8 hr); mean residual 0".40
Residuals in arcseconds: 
200325 G96  .46+  .11-    200325 L01  .13+  .47-    200326 I52  .56+  .62+    
200325 G96  .17-  .09+    200325 L01  .52-  .17+    200326 I52  .28+  .16+    
200325 G96  .08-  .25+    200325 L01  1.3-  .59+    200326 H21  .27-  .06-    
200325 G96  .47+  .20+    200325 033  .19-  .62-    200326 H21  .43+  .23-    
200325 I52  .60+  .03-    200325 033  .12-  .04+    200326 H21  .54+  .09+    
200325 I52  .42-  .48-    200325 033  .19-  .31-    
200325 I52  .03+  .11+    200326 I52  .14+  .20+    

Ephemerides (geocentric):
Date (UTC) HH   RA              Dec         delta   r     elong  mag " sig PA
---- -- -- --  -------------   -----------  ------ ------ -----  --- ---- ---
2020 03 26 21  10 55 07.256   +10 23 49.32  .20486 1.1860 154.5 21.7 .222  16
2020 03 26 22  10 55 10.249   +10 20 47.31  .20515 1.1863 154.5 21.7 .257  12
2020 03 26 23  10 55 13.239   +10 17 45.76  .20543 1.1866 154.5 21.7 .294   9
2020 03 27 00  10 55 16.225   +10 14 44.66  .20572 1.1868 154.5 21.7 .332   7
2020 03 27 01  10 55 19.207   +10 11 44.03  .20601 1.1871 154.5 21.7 .372   5
2020 03 27 02  10 55 22.185   +10 08 43.85  .20629 1.1874 154.5 21.7 .414   3
2020 03 27 03  10 55 25.160   +10 05 44.12  .20658 1.1876 154.5 21.7 .457   2
2020 03 27 04  10 55 28.131   +10 02 44.85  .20687 1.1879 154.4 21.7 .501   1
2020 03 27 05  10 55 31.099   +09 59 46.03  .20715 1.1882 154.4 21.7 .547 179
2020 03 27 06  10 55 34.062   +09 56 47.65  .20744 1.1884 154.4 21.7 .594 178
2020 03 27 07  10 55 37.022   +09 53 49.73  .20773 1.1887 154.4 21.7 .643 178
2020 03 27 08  10 55 39.979   +09 50 52.26  .20802 1.1890 154.4 21.7 .693 177
2020 03 27 09  10 55 42.932   +09 47 55.23  .20831 1.1893 154.4 21.7 .744 176
2020 03 27 10  10 55 45.881   +09 44 58.65  .20860 1.1895 154.4 21.7 .796 175
2020 03 27 11  10 55 48.827   +09 42 02.51  .20889 1.1898 154.4 21.7 .850 175
2020 03 27 12  10 55 51.770   +09 39 06.81  .20918 1.1901 154.4 21.7 .905 174
2020 03 27 13  10 55 54.709   +09 36 11.56  .20947 1.1903 154.4 21.7 .961 174
2020 03 27 14  10 55 57.644   +09 33 16.74  .20976 1.1906 154.4 21.7 1.02 173
2020 03 27 15  10 56 00.576   +09 30 22.37  .21005 1.1909 154.4 21.7 1.08 173
2020 03 27 16  10 56 03.505   +09 27 28.43  .21034 1.1912 154.4 21.7 1.14 172
2020 03 27 17  10 56 06.431   +09 24 34.93  .21063 1.1914 154.4 21.7 1.20 172
2020 03 27 18  10 56 09.353   +09 21 41.86  .21092 1.1917 154.3 21.8 1.26 172
2020 03 27 19  10 56 12.271   +09 18 49.23  .21121 1.1920 154.3 21.8 1.32 171
2020 03 27 20  10 56 15.187   +09 15 57.03  .21150 1.1923 154.3 21.8 1.39 171
2020 03 27 21  10 56 18.099   +09 13 05.26  .21179 1.1925 154.3 21.8 1.45 171
2020 03 27 22  10 56 21.007   +09 10 13.92  .21209 1.1928 154.3 21.8 1.52 170
2020 03 27 23  10 56 23.913   +09 07 23.01  .21238 1.1931 154.3 21.8 1.59 170
2020 03 28 00  10 56 26.815   +09 04 32.53  .21267 1.1933 154.3 21.8 1.66 170
2020 03 28 01  10 56 29.714   +09 01 42.48  .21297 1.1936 154.3 21.8 1.73 170
2020 03 28 02  10 56 32.610   +08 58 52.84  .21326 1.1939 154.3 21.8 1.80 169
2020 03 28 03  10 56 35.503   +08 56 03.64  .21355 1.1942 154.3 21.8 1.87 169
2020 03 28 04  10 56 38.393   +08 53 14.85  .21385 1.1944 154.3 21.8 1.94 169
2020 03 28 05  10 56 41.279   +08 50 26.49  .21414 1.1947 154.2 21.8 2.02 169
2020 03 28 06  10 56 44.163   +08 47 38.55  .21444 1.1950 154.2 21.8 2.09 168
2020 03 28 07  10 56 47.043   +08 44 51.02  .21473 1.1953 154.2 21.8 2.17 168
2020 03 28 08  10 56 49.921   +08 42 03.92  .21503 1.1955 154.2 21.8 2.25 168
2020 03 28 09  10 56 52.795   +08 39 17.23  .21532 1.1958 154.2 21.8 2.32 168
2020 03 28 10  10 56 55.666   +08 36 30.95  .21562 1.1961 154.2 21.8 2.40 168
2020 03 28 11  10 56 58.534   +08 33 45.09  .21591 1.1963 154.2 21.8 2.48 167
2020 03 28 12  10 57 01.400   +08 30 59.65  .21621 1.1966 154.2 21.8 2.57 167
2020 03 28 13  10 57 04.262   +08 28 14.61  .21651 1.1969 154.2 21.8 2.65 167
2020 03 28 14  10 57 07.122   +08 25 29.99  .21680 1.1972 154.2 21.8 2.73 167
2020 03 28 15  10 57 09.978   +08 22 45.77  .21710 1.1974 154.1 21.8 2.82 167
2020 03 28 16  10 57 12.832   +08 20 01.96  .21740 1.1977 154.1 21.8 2.90 167
2020 03 28 17  10 57 15.683   +08 17 18.56  .21769 1.1980 154.1 21.8 2.99 166
2020 03 28 18  10 57 18.531   +08 14 35.57  .21799 1.1983 154.1 21.8 3.07 166
2020 03 28 19  10 57 21.376   +08 11 52.98  .21829 1.1985 154.1 21.8 3.16 166
2020 03 28 20  10 57 24.218   +08 09 10.79  .21859 1.1988 154.1 21.8 3.25 166